Whidbey Island, WA

11:25 PM PDT on August 19, 2017 (GMT -0700)
Whidbey Island Naval Air Station

Weather History for KNUW - December, 2013

Change the Weather History Date:

Saturday, December 28, 2013

  Actual Average Record
Temperature  
Mean Temperature 42 °F -  
Max Temperature 48 °F 43 °F 54 °F (2011)
Min Temperature 37 °F 33 °F 22 °F (1996)
Degree Days  
Heating Degree Days 22    
Moisture  
Dew Point 39 °F    
Average Humidity 83    
Maximum Humidity 89    
Minimum Humidity 71    
Precipitation  
Precipitation 0.00 in - - ()
Sea Level Pressure  
Sea Level Pressure 30.50 in    
Wind  
Wind Speed 4 mph (SW)    
Max Wind Speed 9 mph    
Max Gust Speed -    
Visibility 9 miles    
Events Fog    
Averages and records for this station are not official NWS values.
T = Trace of Precipitation, MM = Missing Value Source: NWS Daily Summary

Daily Weather History Graph

Daily Weather History Graph

Search for Another Location

Airport or City:

Trip Planner

Search our weather history database for the weather conditions in past years. The results will help you decide how hot, cold, wet, or windy it might be!

Date:

Astronomy

Dec. 28, 2013 Rise Set
Actual Time 8:01 AM PST 4:23 PM PST
Civil Twilight 7:25 AM PST 4:59 PM PST
Nautical Twilight 6:45 AM PST 5:39 PM PST
Astronomical Twilight 6:07 AM PST 6:17 PM PST
Moon 3:34 AM PST (12/28) 1:27 PM PST (12/28)
Length of Visible Light 9h 34m
Length of Day
8h 21m
Waning Crescent, 18% of the Moon is Illuminated
Dec 28
Waning Crescent
Jan 1
New
Jan 7
First Quarter
Jan 15
Full
Jan 23
Last Quarter

Hourly Weather History & Observations

Time (PST) Temp. Windchill Dew Point Humidity Pressure Visibility Wind Dir Wind Speed Gust Speed Precip Events Conditions
12:38 AM 41.0 °F 36.4 °F 37.0 °F 86% 30.38 in 10.0 mi SSE 6.9 mph - N/A   Partly Cloudy
12:56 AM 43.0 °F 39.5 °F 39.0 °F 86% 30.40 in 10.0 mi SSE 5.8 mph - N/A   Mostly Cloudy
1:56 AM 46.0 °F - 42.1 °F 86% 30.44 in 10.0 mi Calm Calm - N/A   Overcast
2:56 AM 46.0 °F 41.4 °F 41.0 °F 83% 30.44 in 10.0 mi SW 9.2 mph - N/A   Mostly Cloudy
3:10 AM 46.0 °F 41.9 °F 39.9 °F 79% 30.44 in 10.0 mi WSW 8.1 mph - N/A   Scattered Clouds
3:56 AM 45.0 °F - 39.9 °F 82% 30.46 in 10.0 mi Calm Calm - N/A   Mostly Cloudy
4:56 AM 44.1 °F 41.5 °F 39.0 °F 82% 30.48 in 10.0 mi WSW 4.6 mph - N/A   Mostly Cloudy
5:17 AM 45.0 °F 43.5 °F 39.0 °F 80% 30.46 in 10.0 mi Variable 3.5 mph - N/A   Scattered Clouds
5:56 AM 39.9 °F - 36.0 °F 86% 30.49 in 7.0 mi Calm Calm - N/A   Scattered Clouds
6:56 AM 39.9 °F 36.7 °F 37.0 °F 89% 30.49 in 7.0 mi SSE 4.6 mph - N/A Fog Patches of Fog
7:56 AM 43.0 °F - 39.0 °F 86% 30.50 in 10.0 mi Calm Calm - N/A   Overcast
8:56 AM 44.1 °F - 39.9 °F 85% 30.52 in 10.0 mi Calm Calm - N/A   Mostly Cloudy
9:56 AM 46.9 °F - 43.0 °F 86% 30.54 in 10.0 mi Calm Calm - N/A   Mostly Cloudy
10:33 AM 48.0 °F - 43.0 °F 83% 30.54 in 10.0 mi Calm Calm - N/A   Mostly Cloudy
10:56 AM 48.0 °F - 42.1 °F 80% 30.55 in 10.0 mi NW 3.5 mph - N/A   Mostly Cloudy
11:56 AM 48.9 °F - 41.0 °F 74% 30.54 in 10.0 mi WNW 4.6 mph - N/A   Mostly Cloudy
12:36 PM 48.9 °F - 39.9 °F 71% 30.53 in 10.0 mi WNW 4.6 mph - N/A   Overcast
12:56 PM 48.0 °F - 39.9 °F 74% 30.53 in 10.0 mi NW 4.6 mph - N/A   Overcast
1:56 PM 48.0 °F - 41.0 °F 77% 30.52 in 10.0 mi NW 4.6 mph - N/A   Overcast
2:56 PM 48.0 °F - 41.0 °F 77% 30.53 in 10.0 mi NNW 4.6 mph - N/A   Mostly Cloudy
3:56 PM 46.0 °F 43.1 °F 39.9 °F 79% 30.53 in 10.0 mi NNW 5.8 mph - N/A   Mostly Cloudy
4:56 PM 44.1 °F 41.5 °F 37.9 °F 79% 30.53 in 10.0 mi North 4.6 mph - N/A   Scattered Clouds
5:56 PM 42.1 °F - 37.9 °F 85% 30.53 in 7.0 mi Calm Calm - N/A   Scattered Clouds
6:56 PM 42.1 °F 40.2 °F 37.9 °F 85% 30.53 in 5.0 mi ESE 3.5 mph - N/A   Scattered Clouds
7:56 PM 39.0 °F 36.8 °F 35.1 °F 86% 30.53 in 7.0 mi SE 3.5 mph - N/A Fog Patches of Fog
8:56 PM 41.0 °F 39.0 °F 37.0 °F 86% 30.53 in 4.0 mi ESE 3.5 mph - N/A   Mostly Cloudy
9:56 PM 39.0 °F 36.8 °F 36.0 °F 89% 30.54 in 4.0 mi SSE 3.5 mph - N/A   Mostly Cloudy
10:56 PM 37.0 °F 33.3 °F 34.0 °F 89% 30.52 in 4.0 mi ESE 4.6 mph - N/A   Mostly Cloudy
11:56 PM 37.0 °F 34.5 °F 34.0 °F 89% 30.51 in 4.0 mi ESE 3.5 mph - N/A   Mostly Cloudy